Theta_e
340 340 341 343 345 345 343 342 342 342 342 340 338 335 334 333 333 330 329 329 328 327 327 326 324 323 320 321 320 319 320 321 316 319 321 323 325 329 330 328 327 324 324
342 342 343 342 343 341 338 338 339 339 339 338 336 334 334 333 331 329 328 329 328 326 327 326 325 327 322 321 319 317 318 320 316 315 318 320 321 326 327 328 329 328 327
342 341 341 342 339 337 335 334 335 333 332 333 332 335 334 334 332 328 329 329 327 327 327 326 324 324 321 321 320 319 319 323 322 321 318 321 326 326 325 327 326 324 325
340 340 339 339 337 334 333 332 333 332 330 329 332 333 334 333 333 331 330 325 327 328 328 327 326 324 323 322 322 321 320 321 320 319 318 319 324 325 326 321 319 321 320
339 338 337 337 335 334 332 332 331 330 329 332 331 331 331 329 330 329 328 329 326 327 328 327 323 323 323 323 324 323 322 320 320 318 316 319 320 322 321 320 318 317 317
337 336 336 333 332 331 330 330 329 329 331 331 329 330 323 325 311 317 324 326 328 327 322 321 320 319 319 319 318 322 322 322 316 315 318 318 317 318 320 318 316 316 312
335 334 332 331 332 330 331 331 330 329 330 327 326 325 322 316 306 313 321 326 327 326 323 322 322 324 320 320 314 314 314 315 317 317 318 319 318 319 319 317 317 314 313
332 331 330 331 331 330 327 326 328 327 329 325 325 323 319 312 303 308 316 326 325 326 323 321 320 322 321 321 319 320 316 314 316 323 320 320 320 321 320 319 315 316 317
328 328 330 331 330 328 325 325 327 326 324 325 326 322 318 313 303 306 316 325 324 328 328 326 325 321 303 306 319 316 312 312 306 306 307 305 305 307 314 318 315 314 312
327 327 328 329 329 328 329 327 327 326 325 327 325 324 315 313 304 304 313 324 323 323 323 320 313 317 300 304 320 316 314 313 316 316 313 307 310 309 308 319 317 314 312
327 326 327 329 331 331 330 328 327 327 326 325 325 323 320 315 307 304 303 324 322 321 318 316 313 300 299 302 309 319 314 315 312 316 316 317 318 317 319 319 318 316 314
325 330 330 330 332 331 329 327 327 326 323 322 322 323 319 317 305 303 301 305 311 324 318 314 309 298 299 301 307 300 302 310 316 315 315 315 316 317 317 319 318 315 317
328 327 327 328 330 330 328 327 327 324 322 322 322 321 320 317 309 299 301 305 306 317 316 307 297 297 298 301 298 301 306 317 315 314 313 314 315 317 317 319 318 319 320
325 325 326 328 326 327 329 327 325 323 322 322 321 320 318 317 314 313 310 309 305 307 304 306 304 302 303 304 307 309 319 317 315 314 314 315 316 316 316 318 317 314 313
326 326 326 325 321 312 308 310 322 317 320 322 321 323 319 318 318 313 313 315 315 309 309 312 313 313 312 314 316 318 318 317 315 315 315 315 315 315 316 317 316 316 312
325 325 325 323 321 320 316 311 295 295 297 301 309 317 314 307 299 299 300 299 299 300 313 314 313 314 314 315 316 317 318 314 316 316 315 315 313 314 315 317 317 316 316
324 324 325 322 324 321 320 316 313 305 296 294 295 300 302 300 297 296 296 297 297 305 315 313 313 314 314 315 316 317 317 317 318 317 316 316 316 315 311 315 316 317 317
325 313 327 325 325 324 321 318 317 316 313 309 297 296 294 295 295 296 296 302 314 311 316 314 314 315 315 315 316 317 318 318 316 317 317 317 317 318 315 315 316 314 316
325 325 327 327 327 324 324 321 319 319 315 310 308 301 294 293 294 296 296 317 317 316 317 316 316 316 316 317 317 317 318 318 318 318 315 318 319 317 315 315 315 302 306
325 314 317 327 327 324 325 323 320 319 315 313 312 311 307 306 312 312 312 317 318 318 317 319 317 317 318 317 317 317 316 315 317 317 315 316 318 318 317 317 318 316 314
321 318 307 326 326 326 325 323 322 320 318 317 315 311 299 314 313 313 313 315 319 318 319 320 318 318 319 320 319 319 319 317 316 320 319 318 319 319 320 319 318 318 317
321 321 319 322 323 321 323 325 324 323 321 319 316 308 293 316 316 316 317 318 322 324 322 321 321 323 323 322 321 319 320 319 319 321 321 321 321 321 320 320 319 318 319
322 320 319 322 322 309 318 326 325 324 322 320 316 313 308 315 318 318 319 322 322 321 321 315 314 316 314 315 316 316 321 320 321 323 323 323 323 322 323 321 321 320 319
320 320 319 319 319 320 317 317 317 314 323 319 316 316 316 316 315 312 309 308 306 305 303 301 300 299 299 298 299 299 296 295 302 313 325 324 324 317 322 323 324 322 320
309 309 310 310 311 313 311 309 311 313 319 317 314 311 308 310 309 309 307 303 300 297 297 298 296 295 294 293 293 292 288 289 295 292 318 322 325 324 323 322 322 322 323
303 303 303 302 301 302 302 302 302 303 302 303 304 302 302 301 301 301 300 298 297 295 293 292 292 291 291 290 289 286 287 287 292 291 311 312 310 307 311 316 319 320 320
Wind_Speed
9 8 8 7 8 11 8 9 10 10 10 11 9 8 8 8 7 6 6 6 6 6 4 5 5 5 3 2 2 1 1 2 3 1 1 1 3 8 5 4 5 5 4
11 8 9 7 10 10 9 10 10 12 11 10 8 8 8 7 7 7 7 6 7 7 7 6 6 4 4 4 3 3 3 2 3 3 2 2 3 5 4 8 6 5 4
9 8 9 11 10 10 12 10 9 10 8 8 7 9 9 8 8 7 7 6 7 7 7 6 6 6 4 3 3 4 3 2 2 4 3 1 2 3 4 6 7 7 5
9 9 11 12 11 9 9 8 8 8 8 7 8 9 9 8 8 6 5 5 6 6 6 5 5 6 6 6 5 5 3 4 4 5 4 3 3 4 6 7 6 4 5
13 12 11 11 10 9 8 8 8 8 6 7 9 8 7 5 4 4 6 6 6 6 6 6 4 5 2 6 4 5 5 4 5 5 4 2 3 5 7 3 6 6 4
14 12 11 10 10 9 8 8 8 7 8 9 8 7 7 4 7 9 8 6 6 7 6 5 4 5 4 7 8 6 6 9 5 4 3 6 3 6 5 7 8 6 3
16 14 12 10 9 8 7 8 8 7 7 7 7 8 7 6 6 7 9 6 6 6 6 5 4 2 5 4 4 8 9 9 7 6 9 8 6 6 7 8 8 4 3
16 14 12 10 10 8 7 8 6 6 7 6 7 7 7 4 5 6 8 6 6 6 6 6 5 3 4 5 5 7 8 6 3 5 7 7 7 8 9 8 9 9 7
13 12 12 11 12 10 8 8 6 7 6 6 7 8 8 5 4 6 3 6 6 7 5 5 5 5 5 6 7 9 7 5 9 9 12 13 13 12 11 10 9 11 4
13 13 10 13 13 10 9 8 6 6 6 6 6 7 9 7 5 5 3 4 5 5 4 4 5 7 8 6 8 8 9 4 8 8 7 8 8 10 9 8 11 11 6
13 11 12 10 11 12 8 6 6 6 6 6 7 6 7 7 5 3 2 4 4 4 4 3 3 8 8 7 7 7 7 8 10 8 6 5 6 8 3 5 6 10 9
11 15 15 12 11 9 11 5 7 7 7 6 8 6 4 5 7 5 8 7 5 5 5 3 4 8 8 7 4 14 14 10 7 6 5 5 6 5 4 6 5 5 2
17 15 13 12 10 8 9 8 6 6 6 6 6 7 5 4 4 6 7 9 10 6 4 7 9 9 9 8 10 15 10 7 7 6 5 3 3 4 4 5 6 6 4
15 14 13 12 8 6 6 6 6 5 6 6 6 6 5 4 4 4 4 7 11 9 10 5 6 7 5 5 6 3 5 7 7 6 5 4 4 4 2 4 6 3 3
16 14 12 9 10 8 7 4 4 3 4 7 5 7 8 6 6 8 8 5 5 6 8 4 3 3 3 3 4 4 5 6 7 6 6 5 5 5 3 2 2 3 3
14 11 9 9 7 8 8 7 14 9 6 10 11 8 2 9 12 11 11 13 15 13 3 4 4 3 4 5 5 6 6 7 6 7 6 5 5 5 5 3 2 2 3
14 12 9 10 9 9 8 8 9 8 18 18 12 11 10 12 13 13 13 14 11 7 4 4 4 4 4 4 5 6 6 6 8 7 7 6 6 5 4 3 3 2 3
14 15 10 10 9 9 8 8 7 8 7 4 12 8 11 12 13 14 13 9 4 2 2 4 5 5 4 4 4 4 6 6 5 6 6 7 7 7 6 5 5 4 4
13 10 9 8 9 9 9 9 8 8 8 8 5 6 7 11 9 8 4 5 4 3 3 4 4 4 5 4 4 3 4 5 6 5 4 5 6 4 5 5 6 6 5
12 14 7 8 8 8 10 9 9 9 9 8 7 7 6 5 4 5 3 2 4 4 4 5 4 3 4 5 4 4 4 3 3 4 4 4 4 3 5 4 6 5 5
6 7 8 7 8 9 11 10 10 10 9 9 8 9 10 7 6 5 4 4 4 5 4 5 6 5 5 5 5 5 5 5 4 4 4 5 4 4 4 5 4 5 5
6 6 5 4 6 8 11 11 10 10 10 10 9 8 10 5 5 5 6 5 5 7 6 6 5 6 6 6 7 7 6 7 7 6 7 7 6 5 6 5 4 5 7
5 5 4 3 2 5 9 12 12 10 9 9 9 9 4 2 1 2 3 2 4 6 8 7 6 6 7 7 6 5 1 2 3 5 7 8 8 7 7 7 8 7 7
9 11 10 9 9 9 10 8 5 11 11 9 11 9 6 7 8 11 10 10 10 11 11 11 11 12 9 9 8 8 6 5 5 5 4 5 6 6 7 8 9 10 9
11 10 11 10 11 10 10 12 13 11 13 13 12 11 10 10 12 11 12 11 11 11 14 11 9 13 16 17 14 14 10 7 4 4 3 5 5 1 3 4 4 3 4
12 12 11 10 10 11 10 12 12 13 13 12 12 11 11 11 11 12 12 13 12 12 12 10 13 19 17 14 16 12 11 12 12 11 9 9 9 7 6 6 8 4 5
Wind_Direction
142 139 144 161 160 161 148 148 155 150 146 147 147 141 136 136 146 148 172 174 170 168 162 177 180 166 176 195 184 183 102 123 136 323 88 77 102 130 122 90 124 113 130
143 146 156 138 137 134 122 121 133 136 143 143 142 145 145 149 155 164 179 183 169 172 180 178 183 172 185 194 187 199 190 151 122 142 86 65 92 116 119 141 120 120 119
142 137 135 134 125 120 123 124 126 131 137 140 134 145 144 151 155 184 185 207 173 171 173 174 184 178 196 195 186 195 202 159 159 137 114 99 112 130 98 84 101 88 77
136 130 136 129 121 116 126 132 127 123 131 142 140 143 148 156 168 189 174 170 143 154 162 168 186 178 189 193 190 206 190 142 122 110 97 92 93 74 102 114 93 85 98
132 123 121 123 120 129 133 122 117 126 142 121 126 125 138 147 155 196 156 134 137 135 105 103 102 110 204 166 166 206 171 134 126 124 115 105 110 134 142 110 112 104 62
125 123 127 125 122 123 121 121 121 128 111 107 112 127 118 104 102 124 122 136 132 126 119 104 116 106 117 147 152 175 177 149 142 129 121 153 121 112 130 129 133 130 107
131 133 133 129 130 130 129 128 124 121 110 123 123 119 116 111 102 99 121 133 140 138 135 135 133 136 142 125 85 103 87 109 137 139 144 158 150 148 134 138 139 105 100
132 138 144 140 132 123 121 117 119 124 136 135 125 119 112 102 120 99 126 131 134 130 144 145 140 142 150 134 122 90 74 61 54 139 149 138 137 147 149 145 127 105 97
136 148 154 144 136 135 132 134 125 113 116 121 130 124 123 127 111 85 114 125 131 131 131 117 130 124 104 120 112 104 83 66 45 92 112 117 134 129 131 127 138 135 130
146 150 144 140 142 147 144 130 128 133 139 133 134 131 133 136 124 88 67 135 133 124 110 92 125 129 83 65 136 130 118 124 102 93 89 97 124 138 150 159 151 151 141
138 140 134 123 126 127 125 125 128 133 128 132 124 125 126 133 120 101 69 138 151 132 129 122 107 103 97 85 141 140 136 128 109 109 108 117 128 147 134 138 162 157 162
114 110 114 118 123 123 126 121 121 125 127 128 123 119 113 116 119 89 77 95 180 139 136 120 118 121 111 95 109 128 129 120 114 116 123 126 139 138 129 155 139 137 169
118 119 119 117 119 122 117 121 124 126 127 128 128 127 132 120 101 88 65 75 70 99 104 125 119 114 113 83 124 133 131 123 128 132 129 122 121 126 118 117 127 136 109
118 117 122 122 104 110 120 127 132 133 134 144 141 145 138 140 142 133 117 98 94 95 114 107 114 105 91 107 120 121 135 137 138 135 130 116 117 124 112 133 143 133 105
124 124 118 111 107 89 67 35 121 96 161 156 158 152 152 169 181 166 154 146 139 130 118 127 114 103 118 138 140 142 127 129 134 133 135 136 140 140 147 144 118 140 137
129 128 129 119 117 119 117 88 45 30 80 114 145 133 74 137 135 131 135 130 130 145 119 133 134 139 147 153 149 141 140 137 140 145 145 147 159 157 161 176 141 152 145
137 136 131 132 134 137 132 125 113 54 65 50 56 97 121 139 117 115 118 124 140 135 131 127 134 136 130 129 139 134 145 147 149 151 158 161 163 170 162 159 155 179 204
143 139 147 154 149 148 136 130 129 127 114 68 35 70 92 112 120 129 127 112 113 80 132 149 147 146 145 137 126 132 136 143 155 158 159 166 175 175 179 185 194 200 203
142 163 157 151 157 149 142 149 148 136 122 119 117 65 65 91 101 109 82 138 144 167 155 157 157 150 147 153 148 137 135 149 161 166 164 175 183 171 172 181 201 220 223
152 163 145 153 150 153 155 161 151 145 141 144 142 142 149 141 163 179 187 152 177 177 181 160 159 157 154 158 155 157 146 155 162 160 172 191 197 190 195 192 199 212 212
138 147 150 161 165 164 166 159 150 147 149 153 149 162 170 158 175 181 183 207 200 180 184 174 163 174 177 160 163 166 171 178 189 183 188 201 213 199 197 209 214 218 226
134 136 158 152 175 146 162 151 151 146 152 148 147 162 178 166 167 185 204 208 209 182 180 171 172 184 182 187 179 181 178 178 190 197 189 198 213 212 214 223 224 227 233
80 129 134 68 96 149 140 157 151 152 152 140 149 149 138 36 228 233 269 311 67 54 61 49 35 44 44 36 39 34 153 205 231 217 212 203 205 216 214 219 227 234 236
59 72 73 60 66 71 85 81 91 149 131 104 100 108 89 78 73 73 68 65 66 66 66 64 60 57 52 46 40 37 30 353 307 315 249 209 225 229 232 220 226 234 248
45 52 69 62 65 65 67 71 72 79 94 99 98 93 82 78 76 74 74 69 64 64 63 60 64 60 55 56 50 35 1 352 1 284 305 318 208 163 287 252 260 256 255
58 51 57 61 61 69 66 74 76 79 79 80 82 79 79 76 74 74 73 74 73 66 65 61 59 58 51 45 38 17 7 15 9 0 46 56 51 38 8 353 353 359 8